Theta_e
310 309 309 309 310 311 311 311 311 311 312 312 313 312 312 312 312 310 310 311 311 311 310 310 310 310 308 307 307 306 305 305 302 304 305 307 305 306 311 310 313 318 321
307 308 308 308 308 308 308 309 310 310 310 310 311 311 311 311 310 309 309 310 309 308 308 307 307 309 305 304 303 302 303 303 302 300 304 305 303 305 306 308 313 315 317
305 304 304 305 305 305 306 307 308 308 309 309 308 308 308 309 309 308 308 307 306 307 306 305 304 304 303 303 302 302 302 303 302 301 301 303 304 304 305 305 306 308 313
304 303 303 303 304 304 305 305 306 306 306 305 306 307 308 308 309 308 306 305 304 305 305 304 304 303 303 303 303 303 302 301 301 301 300 300 301 303 303 300 301 304 309
303 302 302 302 302 302 301 301 301 302 302 303 304 305 306 307 309 308 307 306 303 302 303 304 304 305 308 308 305 303 302 300 300 300 298 298 298 298 297 299 299 302 305
301 300 300 299 299 298 298 298 298 298 298 299 301 302 303 307 305 304 305 305 306 304 301 303 303 306 306 307 307 306 305 301 300 299 299 298 299 300 300 299 299 299 299
297 298 297 297 297 296 297 296 295 295 295 296 297 298 300 302 302 301 303 305 304 303 301 301 302 304 305 304 303 304 305 305 305 303 300 300 300 301 302 300 299 299 300
294 294 295 294 294 294 294 294 294 294 295 295 295 296 298 301 301 299 301 303 303 301 301 302 302 302 302 303 303 303 302 302 303 303 302 302 303 303 303 302 299 299 302
293 293 293 293 292 292 293 293 296 296 296 293 295 296 299 300 299 299 299 300 299 301 302 303 303 302 301 298 300 299 300 300 303 302 301 300 298 298 302 303 300 298 299
291 291 292 292 291 292 293 293 295 296 296 297 298 300 301 301 299 298 298 300 300 300 302 302 301 300 298 296 298 299 298 299 301 301 302 301 300 301 300 302 301 299 300
291 292 291 290 290 293 294 294 294 294 295 297 298 298 299 300 299 297 297 298 299 300 301 301 302 299 296 295 296 299 299 300 301 301 301 301 302 303 303 302 302 301 300
290 291 291 292 292 293 293 294 294 294 294 295 295 296 298 297 298 297 296 296 298 300 300 301 302 298 296 296 296 296 294 295 297 297 298 300 301 302 304 306 306 304 306
289 288 289 291 291 292 291 291 292 293 293 293 294 295 296 298 299 298 296 296 298 299 300 300 298 297 296 298 298 296 295 298 298 299 299 300 301 303 305 308 311 309 310
288 288 289 289 290 291 291 291 291 291 292 292 293 293 295 296 297 299 298 298 298 301 303 302 300 298 297 300 300 307 307 305 308 309 308 308 303 304 305 309 311 310 310
288 288 288 288 289 289 290 291 291 293 293 292 293 293 293 291 293 292 291 293 296 297 294 298 306 313 314 313 312 312 314 312 310 309 309 308 305 307 308 312 312 313 311
287 287 287 287 288 288 289 289 292 292 292 292 291 291 291 291 291 292 293 292 292 294 296 309 312 314 313 312 312 314 315 313 312 309 309 309 310 310 311 312 315 313 309
287 287 287 287 287 287 287 287 287 290 292 293 291 290 289 290 291 293 294 295 297 297 310 311 313 314 313 313 313 313 314 316 316 313 310 310 311 311 312 314 312 311 308
289 289 287 287 287 287 287 287 287 287 287 288 290 289 289 290 291 292 293 299 305 306 306 308 308 306 305 304 304 307 311 315 314 315 316 313 312 313 313 312 311 309 308
288 288 288 288 288 287 287 287 287 287 286 287 288 288 289 290 291 292 293 297 301 304 302 301 301 301 299 299 300 302 305 308 313 317 316 316 316 315 313 313 311 303 304
288 289 289 287 287 286 286 286 286 286 286 285 286 285 286 289 288 289 292 294 295 297 302 299 298 296 296 296 296 298 300 303 306 316 317 317 317 317 314 312 310 304 301
289 287 287 288 287 287 286 285 285 285 285 285 285 286 285 287 286 287 289 291 293 294 298 296 295 293 293 293 292 293 295 298 301 304 318 318 316 312 310 308 306 304 304
287 285 284 283 284 285 286 286 285 285 285 284 284 285 285 286 286 286 287 289 291 293 295 296 292 292 290 290 290 290 290 290 294 297 308 318 317 314 312 310 308 305 303
285 285 283 282 281 282 283 284 284 284 284 284 284 284 285 285 285 286 286 288 289 290 292 292 292 290 289 289 289 288 286 286 289 294 301 318 317 315 314 312 309 306 302
285 284 283 281 281 280 280 280 283 283 283 283 284 283 283 284 284 285 286 287 288 288 290 289 289 290 288 287 287 287 286 286 289 290 297 314 316 315 314 311 308 304 301
284 284 283 281 280 280 279 280 280 281 282 282 282 282 282 282 283 283 284 285 286 286 287 288 287 287 287 286 285 285 284 284 286 287 297 313 313 315 314 311 308 305 303
283 283 282 280 281 280 279 281 281 281 280 281 280 281 281 280 281 282 282 283 283 284 285 286 285 285 286 285 284 284 284 284 285 285 295 302 305 308 308 307 306 304 302
Wind_Speed
8 6 7 6 6 6 6 3 2 1 0 1 2 3 4 5 6 5 6 6 7 6 6 6 7 6 4 4 3 3 5 7 13 10 5 5 5 6 6 10 12 12 10
7 7 7 7 6 5 2 1 1 2 2 2 1 1 3 5 6 6 6 7 5 5 5 5 6 5 6 5 4 7 8 8 10 19 11 8 8 6 6 8 8 10 12
7 7 7 7 6 6 6 7 6 6 5 3 3 4 5 6 6 6 6 1 3 5 6 6 7 7 8 7 8 9 8 8 11 13 12 9 7 4 4 6 9 11 11
7 7 7 7 6 6 7 7 7 7 7 6 6 6 6 6 6 5 2 4 5 6 6 6 6 8 11 12 11 12 10 10 11 11 10 9 8 8 3 7 9 7 11
8 9 8 7 7 6 6 6 5 5 5 5 6 6 7 6 6 3 4 5 6 7 6 8 11 15 22 18 11 13 13 11 10 11 11 10 9 6 5 6 8 8 10
9 8 8 8 7 6 6 6 6 6 6 6 6 7 8 6 8 8 6 7 8 9 10 12 12 18 18 22 24 26 20 14 14 11 11 12 13 8 6 8 8 8 8
8 8 8 8 7 6 6 6 6 7 6 6 6 8 9 7 9 10 8 6 8 10 11 12 11 11 16 14 18 21 21 23 24 17 16 14 14 11 9 9 8 7 8
8 7 7 7 8 8 6 6 6 5 6 6 8 8 9 8 10 11 11 10 9 12 12 13 13 16 15 15 15 14 16 16 17 12 15 15 14 12 11 11 10 9 8
8 6 7 7 8 8 7 7 8 9 8 7 7 9 9 8 10 12 11 7 11 14 12 12 13 15 18 17 14 16 16 16 16 22 22 23 18 14 13 7 8 9 10
8 8 8 8 8 9 8 9 8 8 9 8 9 10 12 11 9 11 10 7 11 11 11 12 14 14 19 21 15 14 15 17 15 13 12 14 18 17 21 14 11 9 7
9 8 7 6 7 8 8 8 9 9 9 9 8 9 10 9 10 13 14 8 8 10 10 12 12 17 18 22 20 15 17 16 16 11 11 11 10 10 10 12 14 12 9
10 9 9 9 8 8 9 8 8 8 8 8 8 8 8 8 11 12 15 16 14 9 12 12 14 21 24 28 23 19 21 18 9 9 9 9 9 9 9 10 12 13 12
12 10 9 9 8 8 8 8 7 7 6 7 7 8 9 8 8 12 16 15 14 11 10 17 26 26 26 20 21 16 15 7 8 8 9 10 9 9 9 10 11 14 13
10 9 8 8 10 8 6 6 6 6 6 6 7 8 8 8 9 9 10 11 14 12 14 12 17 22 23 17 14 11 7 7 7 7 8 6 6 7 8 8 8 8 8
8 8 8 7 8 9 8 7 6 6 6 6 6 8 9 9 10 20 16 11 9 11 15 9 9 10 10 9 10 9 10 4 6 3 4 1 6 7 7 5 2 6 6
8 7 7 7 7 7 8 8 8 6 11 9 7 8 9 12 21 22 19 14 12 12 4 8 11 9 9 11 11 12 6 9 3 4 2 1 4 6 6 8 6 6 8
8 7 6 7 7 8 8 8 10 12 11 8 9 15 19 18 20 25 23 15 13 10 9 9 9 10 12 14 14 13 12 8 11 6 6 7 5 4 4 8 8 8 8
6 11 6 6 6 7 8 8 7 9 11 11 13 17 22 24 19 20 21 11 12 14 13 13 13 14 14 14 14 13 12 10 10 9 11 11 9 7 8 8 9 10 10
6 7 7 6 6 8 7 7 7 8 8 9 11 16 22 23 16 19 18 12 11 11 12 12 13 13 13 14 14 14 14 13 12 9 11 10 10 9 8 8 9 12 12
3 9 8 7 7 8 8 8 8 8 9 10 11 13 13 14 14 14 13 12 12 12 12 12 13 13 14 14 14 13 12 14 13 10 9 9 8 8 10 10 9 9 8
2 5 9 6 7 7 8 8 8 8 9 9 9 11 17 10 11 12 11 11 11 13 12 13 12 13 13 14 15 15 14 13 11 12 8 9 10 10 10 9 10 9 10
6 6 7 7 7 8 7 7 9 9 9 9 9 11 17 11 11 11 12 12 11 11 10 11 12 13 13 14 15 15 15 15 14 14 11 8 9 9 8 8 9 9 8
6 7 6 6 7 10 8 9 9 9 10 10 10 10 11 11 11 12 12 11 11 10 11 12 12 13 13 13 13 13 14 14 13 11 10 8 8 7 7 7 7 7 7
5 6 6 5 6 6 7 9 9 12 11 10 10 11 11 10 11 12 11 11 11 11 11 11 13 17 15 15 13 13 13 14 12 12 14 9 7 7 7 8 7 8 7
5 7 7 6 6 7 5 7 9 10 10 10 10 10 10 10 11 12 12 12 11 10 11 13 12 16 18 21 24 24 24 24 19 17 11 11 9 10 7 6 6 6 7
5 6 7 5 6 7 7 8 9 8 9 9 9 10 9 10 11 11 12 13 12 12 15 11 16 21 20 18 24 25 25 26 23 24 13 11 10 8 5 5 6 4 5
Wind_Direction
88 86 78 67 62 58 65 69 88 106 219 272 278 282 285 291 289 282 271 266 253 249 262 259 264 261 251 259 267 264 263 273 286 285 266 249 261 268 282 297 294 303 295
75 73 65 60 60 65 63 340 255 257 270 289 317 336 298 286 282 284 282 281 292 304 295 294 281 278 276 266 255 255 267 277 284 290 284 278 265 264 268 278 296 304 302
72 69 53 41 30 10 359 354 342 326 316 329 324 314 303 290 283 274 270 295 309 270 262 256 259 264 272 275 269 272 265 273 280 275 281 277 270 247 260 279 294 301 291
60 57 46 32 31 29 29 24 20 11 13 352 325 300 288 281 278 277 273 276 271 267 261 258 271 285 286 282 275 272 273 274 268 267 273 277 273 267 238 288 291 286 287
42 42 38 32 36 30 28 16 358 0 343 327 323 311 300 295 285 258 303 296 286 289 289 290 280 268 269 267 266 267 271 264 265 269 275 280 276 278 272 272 276 287 290
46 44 35 26 17 9 358 351 347 336 326 319 326 318 304 289 299 289 268 298 285 290 289 283 270 273 268 265 263 261 256 261 263 261 263 267 269 259 252 252 262 277 294
39 32 24 10 354 341 330 332 326 316 308 298 319 306 296 296 292 294 290 277 281 286 281 274 273 268 269 269 267 264 261 257 254 260 266 259 260 251 244 244 233 244 262
31 18 2 355 340 328 316 311 301 297 307 318 301 288 278 280 283 289 291 293 289 281 274 267 264 272 270 270 272 273 275 268 260 256 257 262 256 249 240 241 243 257 266
8 349 345 330 323 314 306 314 315 311 306 290 282 281 282 295 293 296 304 306 291 281 274 274 264 271 274 267 274 271 270 268 261 252 249 254 252 231 225 236 242 244 255
338 334 330 326 318 315 315 316 312 310 305 303 301 300 297 299 297 303 302 295 292 289 288 288 276 266 276 274 272 275 271 265 271 265 254 247 242 239 231 231 242 250 252
324 325 316 315 313 310 317 316 313 312 310 308 314 316 305 302 302 296 298 298 295 299 302 302 300 288 272 271 267 267 254 263 271 263 256 254 242 226 221 218 217 214 221
336 334 334 329 333 330 320 318 323 320 319 322 323 318 317 301 282 294 298 296 296 297 295 293 289 288 288 288 290 272 260 252 251 250 248 245 232 228 223 213 207 209 212
350 344 339 341 337 332 333 327 325 324 326 324 322 317 316 315 311 302 296 301 300 293 284 282 285 289 287 287 279 269 262 244 231 242 242 237 218 213 216 217 215 195 203
350 348 347 343 342 339 335 330 328 330 330 327 324 317 315 321 318 323 320 311 301 296 296 300 291 282 274 267 284 284 247 228 232 259 279 249 180 190 209 215 195 176 183
353 353 351 345 348 345 341 336 333 323 327 316 334 331 332 328 316 305 296 296 294 293 310 298 312 329 322 324 315 307 316 266 229 233 283 152 167 179 196 180 187 154 158
3 360 357 350 349 349 344 341 341 319 323 346 354 344 337 310 305 313 314 302 293 308 287 332 343 338 334 332 321 322 331 333 285 230 243 298 127 167 179 169 173 136 117
6 358 353 360 356 354 354 359 353 350 355 340 355 357 355 342 343 349 350 353 333 333 0 354 358 354 346 345 342 345 351 346 329 295 219 171 142 118 125 125 118 119 117
11 11 7 354 356 360 3 3 355 353 354 354 0 359 359 359 356 355 357 347 19 22 7 3 8 1 357 351 343 346 348 349 351 11 45 100 121 118 108 110 112 110 112
31 28 14 0 2 12 5 6 5 2 3 2 359 4 4 359 356 10 11 26 18 23 12 12 8 359 355 350 347 349 352 359 347 31 48 86 100 100 102 106 109 108 119
28 33 28 16 10 18 16 14 9 14 13 12 13 8 354 3 12 8 10 13 17 8 15 14 8 1 356 352 348 352 3 1 2 16 46 60 74 90 98 96 91 82 76
38 23 21 12 16 15 23 16 15 19 19 14 12 4 356 15 10 9 7 9 12 8 3 16 4 4 357 353 354 359 1 5 12 2 21 49 57 73 73 70 84 89 92
49 41 26 20 13 8 14 21 20 21 20 18 10 8 10 18 16 12 7 6 8 8 7 9 13 6 1 357 355 357 0 359 355 353 351 61 65 69 73 76 82 86 92
43 44 36 31 23 15 17 19 28 18 20 18 16 13 13 15 13 10 6 4 2 1 6 12 8 8 3 1 3 3 359 351 337 337 343 30 65 72 77 85 84 87 85
37 38 37 33 31 25 25 22 21 23 20 17 16 17 12 9 14 6 7 5 2 0 6 10 9 6 2 6 4 3 360 350 344 338 343 7 29 55 65 73 80 93 94
46 50 39 26 22 27 10 29 28 28 22 21 18 16 12 6 9 9 5 5 0 3 3 4 7 359 9 8 6 1 358 358 359 352 346 8 30 55 62 68 91 102 108
59 57 46 33 38 30 21 17 27 23 19 22 16 10 10 11 6 7 1 3 1 1 1 359 359 360 5 9 4 3 2 3 359 352 354 11 19 19 25 48 80 93 110